Location: *
(33.6842°N, 117.7925°W)
Time: 08:16:41
(UTC+00:00)

Daily predictions for brighter satellites

Satellite Brightness Start Highest point End
(mag) Time Altitude Azimuth Time Altitude Azimuth Time Altitude Azimuth
IDEFIX/ARIANE 42P 3.6 12:02:26 10° N 12:05:19 30° NNW 12:05:19 30° NNW
SL-16 R/B 2.2 12:05:10 20° SSW 12:09:08 80° ESE 12:14:49 10° NNE
Cosmos 2327 Rocket 4.3 12:03:28 10° S 12:09:43 84° W 12:15:55 10° N
MSX 3.7 12:05:15 10° N 12:10:57 71° WNW 12:15:05 19° SSW
Cosmos 676 Rocket 3.8 12:09:56 53° SW 12:11:06 73° WNW 12:16:23 10° NNE
Cosmos 2154 Rocket 4.0 12:07:29 10° S 12:13:40 84° E 12:19:53 10° N
ATLAS 2AS CENTAUR R/B 3.9 12:13:55 28° NW 12:14:21 28° NW 12:21:06 10° N
Cosmos 1610 Rocket 4.4 12:13:12 10° S 12:19:26 79° W 12:25:48 10° N
Cosmos 1437 Rocket 3.7 12:17:35 10° SSE 12:21:13 46° E 12:24:51 10° NNE
Cosmos 2184 Rocket 4.1 12:19:47 27° SW 12:22:51 47° W 12:28:52 10° N
USA 238 DEB 4.3 12:23:24 34° W 12:24:11 35° WSW 12:30:46 10° S
USA 238 4.3 12:23:25 34° W 12:24:16 35° WSW 12:30:52 10° S
Cosmos 2278 Rocket 2.3 12:22:13 33° NW 12:24:28 52° WSW 12:29:56 10° S
Cosmos 1892 Rocket 3.4 12:27:36 10° S 12:32:02 86° W 12:36:27 10° N
Nadezhda 3 Rocket 4.0 12:31:16 10° N 12:37:39 86° W 12:43:56 10° S
OE (NEXTSAT) 4.5 12:37:55 50° WSW 12:38:16 53° SW 12:41:41 10° SE
PSLV R/B 4.1 12:35:14 10° NNE 12:38:54 62° ESE 12:42:33 10° S
H-2A R/B 3.7 12:39:02 10° NNW 12:41:42 25° NW 12:41:42 25° NW
Cosmos 2341 Rocket 4.0 12:36:26 10° S 12:42:40 84° E 12:48:54 10° N
Cosmos 1726 2.9 12:39:51 10° N 12:43:27 53° E 12:47:03 10° SSE
Meteor 2-10 4.4 12:39:26 10° N 12:44:42 69° E 12:50:08 10° SSE
Cosmos 1606 Rocket 3.6 12:44:47 10° NNW 12:48:59 53° W 12:53:11 10° S
Cosmos 1850 Rocket 3.9 12:44:34 10° SSW 12:49:45 87° WNW 12:54:57 10° NNE
ALOS 3.9 12:45:38 10° NNE 12:49:59 38° E 12:54:18 10° SSE
Cosmos 1953 2.7 12:46:17 10° NNW 12:49:59 38° W 12:53:41 10° SSW
GP-B 3.0 12:46:26 10° S 12:50:51 87° W 12:55:18 10° N
Cosmos 1356 3.3 12:50:50 10° NNW 12:54:17 68° W 12:57:42 10° S
Cosmos 1295 Rocket 4.5 12:49:05 10° SSW 12:55:09 59° W 13:01:13 10° N
In-Cosmos 22 4.2 12:50:07 10° SSW 12:55:17 52° W 13:00:36 10° N
Meteor 1-31 Rocket 3.4 12:54:56 10° N 12:58:21 32° WNW 13:01:44 10° SW
CZ-4B R/B 3.3 12:55:08 10° N 12:58:40 34° WNW 13:02:03 10° SW
Cosmos 2237 Rocket 3.9 12:58:52 14° NW 12:58:52 14° NW 13:01:39 10° NNW
Cosmos 44 4.1 13:00:00 21° W 13:01:12 24° WSW 13:04:40 10° SSW
Meteor 2-5 Rocket 3.7 12:55:39 10° S 13:01:24 81° W 13:07:20 10° N
Cosmos 1674 2.5 12:58:05 10° SSW 13:01:45 67° W 13:05:28 10° N
SL-8 Rocket 4.0 12:57:24 10° S 13:03:36 87° E 13:09:47 10° N
Cosmos 1626 Rocket 3.7 13:02:22 10° S 13:06:39 74° E 13:10:58 10° N
Okean 1-7 Rocket 4.5 13:09:28 10° SW 13:13:14 27° WNW 13:17:04 10° NNW
Cosmos 2366 rocket 4.2 13:07:01 10° S 13:13:20 81° E 13:19:43 10° N
Cosmos 1484 Rocket 2.8 13:10:25 10° N 13:14:09 52° WNW 13:17:55 10° SSW
COSMO-SKYMED 1 2.6 13:10:16 10° SSE 13:14:35 87° E 13:18:57 10° N
CZ-4B DEB 4.1 13:09:54 10° N 13:15:22 77° WNW 13:20:47 10° SSW
USA 234 3.3 13:09:33 10° SE 13:16:05 75° SW 13:22:38 10° NW
Cosmos 2369 Rocket 4.0 13:13:25 10° N 13:18:23 32° ENE 13:23:20 10° SE
Cosmos 44 Rocket 3.2 13:14:24 10° NNW 13:19:06 87° ENE 13:23:46 10° SSE
Centaur D-1AR AC-39 3.8 13:15:47 10° SW 13:19:10 26° SSE 13:26:41 10° ESE
Cosmos 2228 3.9 13:16:11 10° NNW 13:19:42 26° W 13:23:12 10° SW
ISS -0.8 13:18:20 10° S 13:20:48 19° SE 13:23:17 10° E
RESURS DK-1 4.3 13:20:30 11° WNW 13:21:23 12° WNW 13:22:58 10° NNW
Cosmos 1626 3.3 13:19:04 10° SSE 13:22:38 48° E 13:26:14 10° NNE
Helios 1A Rocket 2.9 13:24:54 10° N 13:29:00 62° WNW 13:33:05 10° SSW
PAYLOAD B 4.2 13:24:04 10° N 13:29:33 64° WNW 13:34:59 10° SSW
CZ-4B R/B 3.1 13:24:43 10° NNE 13:30:01 86° WNW 13:35:19 10° SSW
SeaSat 1 3.8 13:25:53 10° NE 13:30:35 44° ESE 13:35:17 10° S
SL-8 R/B 4.4 13:26:16 10° W 13:30:44 38° NNW 13:35:12 10° NE
CZ-2C R/B 3.9 13:28:44 10° NNW 13:31:58 17° WNW 13:35:09 10° WSW
COBE Rocket 4.2 13:28:22 10° S 13:33:13 51° W 13:38:13 10° NNW
Cosmos 1300 4.2 13:30:37 10° N 13:34:14 42° E 13:37:51 10° SSE
ATLAS 3B R/B 3.6 13:35:11 10° NW 13:40:41 27° WSW 13:46:19 10° SSW
Cosmos 1602 Rocket 3.7 13:37:09 10° SSW 13:41:22 51° W 13:45:35 10° N
Cosmos 1943 Rocket 2.8 13:37:27 10° NNW 13:43:06 63° ENE 13:48:41 10° SSE
